DAL19 KLAX-RJTT

Flight info

Callsign DAL19
Flight time N/A
Altitude 36000
Route SUMMR2 MCKEY DCT LIBBO DCT RAINS DCT SHENU DCT 42N130W 46N140W 49N150W/N0492F380 50N160W 50N170W 49N180E 46N170E/N0483F400 43N160E EMRON OTR9 AVBET Y809 POROT Y811 NOGIX Y807 LALID Y804 INUBO Y108 MESSE
Aircraft A359/H-SDE2E3GHIJ1J3J4J5LM1ORWXY/LB1D1

Departure

Time 2026-05-07 15:36
Airport Los Angeles International Airport (KLAX)

Arrival

Time N/A
Airport Tokyo Haneda International Airport (RJTT)
Time Latitude Longitude Altitude Speed Heading
2026-05-07 15:09 33.94263 -118.41105 99 ft 0 kts 83°
2026-05-07 15:25 33.94262 -118.41108 99 ft 2 kts 83°
2026-05-07 15:25 33.94259 -118.41139 99 ft 4 kts 83°
2026-05-07 15:25 33.94257 -118.41167 98 ft 2 kts 83°
2026-05-07 15:25 33.94251 -118.41195 97 ft 4 kts 54°
2026-05-07 15:26 33.94232 -118.41213 98 ft 4 kts
2026-05-07 15:26 33.94207 -118.41211 98 ft 4 kts 353°
2026-05-07 15:26 33.94189 -118.41209 98 ft 0 kts 353°
2026-05-07 15:29 33.94196 -118.41210 100 ft 3 kts 353°
2026-05-07 15:29 33.94242 -118.41217 98 ft 10 kts 353°
2026-05-07 15:30 33.94329 -118.41230 101 ft 15 kts 353°
2026-05-07 15:30 33.94435 -118.41246 101 ft 16 kts 353°
2026-05-07 15:30 33.94543 -118.41262 100 ft 16 kts 353°
2026-05-07 15:30 33.94652 -118.41278 100 ft 16 kts 353°
2026-05-07 15:31 33.94750 -118.41291 102 ft 13 kts
2026-05-07 15:31 33.94797 -118.41222 103 ft 12 kts 78°
2026-05-07 15:31 33.94812 -118.41092 102 ft 19 kts 83°
2026-05-07 15:31 33.94828 -118.40927 104 ft 20 kts 83°
2026-05-07 15:32 33.94845 -118.40761 100 ft 20 kts 83°
2026-05-07 15:32 33.94864 -118.40593 102 ft 20 kts 83°
2026-05-07 15:32 33.94882 -118.40423 101 ft 21 kts 83°
2026-05-07 15:32 33.94899 -118.40253 101 ft 21 kts 83°
2026-05-07 15:33 33.94915 -118.40086 101 ft 18 kts 83°
2026-05-07 15:33 33.94927 -118.39973 99 ft 10 kts 79°
2026-05-07 15:33 33.94944 -118.39938 101 ft 0 kts 45°
2026-05-07 15:34 33.94996 -118.39915 100 ft 15 kts
2026-05-07 15:35 33.95038 -118.39986 101 ft 10 kts 268°
2026-05-07 15:35 33.95036 -118.40011 100 ft 0 kts 264°
2026-05-07 15:35 33.95030 -118.40081 103 ft 31 kts 264°
2026-05-07 15:36 33.94980 -118.40562 105 ft 84 kts 262°
2026-05-07 15:36 33.94886 -118.41464 103 ft 131 kts 263°
2026-05-07 15:36 33.94758 -118.42694 240 ft 154 kts 262°
2026-05-07 15:36 33.94632 -118.43931 750 ft 148 kts 262°
2026-05-07 15:37 33.94509 -118.45180 1053 ft 156 kts 263°
2026-05-07 15:37 33.94385 -118.46456 1305 ft 168 kts 263°
2026-05-07 15:37 33.94285 -118.47928 1482 ft 185 kts 268°
2026-05-07 15:37 33.94244 -118.49537 1668 ft 203 kts 269°
2026-05-07 15:38 33.94204 -118.51311 1871 ft 221 kts 269°
2026-05-07 15:38 33.94084 -118.53228 2075 ft 240 kts 265°
2026-05-07 15:38 33.93909 -118.55298 2359 ft 255 kts 265°
2026-05-07 15:38 33.93729 -118.57442 2869 ft 259 kts 265°
2026-05-07 15:39 33.93551 -118.59615 3394 ft 263 kts 265°
2026-05-07 15:39 33.93374 -118.61823 3882 ft 266 kts 265°
2026-05-07 15:39 33.93196 -118.64055 4392 ft 270 kts 265°
2026-05-07 15:39 33.93025 -118.66287 4888 ft 273 kts 265°
2026-05-07 15:40 33.92848 -118.68568 5378 ft 275 kts 265°
2026-05-07 15:40 33.92667 -118.70873 5884 ft 278 kts 265°
2026-05-07 15:40 33.92485 -118.73206 6361 ft 281 kts 265°
2026-05-07 15:40 33.92300 -118.75564 6853 ft 284 kts 265°
2026-05-07 15:41 33.92113 -118.77948 7359 ft 287 kts 265°
2026-05-07 15:41 33.91925 -118.80351 7909 ft 289 kts 265°
2026-05-07 15:41 33.91750 -118.82778 8477 ft 292 kts 268°
2026-05-07 15:41 33.91744 -118.85234 9037 ft 295 kts 272°
2026-05-07 15:42 33.91815 -118.87715 9615 ft 298 kts 273°
2026-05-07 15:42 33.91895 -118.90188 10140 ft 302 kts 273°
2026-05-07 15:42 33.91976 -118.92776 10385 ft 317 kts 273°
2026-05-07 15:42 33.92059 -118.95489 10591 ft 332 kts 273°
2026-05-07 15:43 33.92144 -118.98335 10794 ft 347 kts 273°
2026-05-07 15:43 33.92392 -119.01274 10961 ft 361 kts 285°
2026-05-07 15:43 33.93411 -119.04070 11164 ft 371 kts 302°
2026-05-07 15:43 33.94789 -119.06752 11368 ft 382 kts 304°
2026-05-07 15:44 33.96234 -119.09486 11665 ft 391 kts 304°
2026-05-07 15:44 33.97674 -119.12231 12086 ft 394 kts 303°
2026-05-07 15:44 33.99077 -119.14926 12553 ft 396 kts 303°
2026-05-07 15:44 34.00605 -119.17688 13025 ft 397 kts 310°
2026-05-07 15:45 34.02574 -119.19995 13489 ft 396 kts 323°
2026-05-07 15:45 34.04797 -119.21963 13939 ft 398 kts 326°
2026-05-07 15:45 34.07068 -119.23892 14359 ft 400 kts 326°
2026-05-07 15:45 34.09343 -119.25826 14764 ft 401 kts 326°
2026-05-07 15:46 34.13919 -119.29743 15561 ft 405 kts 326°
2026-05-07 15:46 34.16220 -119.31720 15959 ft 408 kts 326°
2026-05-07 15:46 34.18506 -119.33688 16342 ft 410 kts 326°
2026-05-07 15:47 34.20829 -119.35691 16742 ft 412 kts 326°
2026-05-07 15:47 34.23168 -119.37708 17110 ft 414 kts 326°
2026-05-07 15:47 34.25518 -119.39737 17513 ft 416 kts 326°
2026-05-07 15:47 34.27879 -119.41777 17908 ft 418 kts 326°
2026-05-07 15:48 34.30256 -119.43834 18313 ft 421 kts 326°
2026-05-07 15:48 34.32640 -119.45897 18658 ft 423 kts 326°
2026-05-07 15:48 34.35037 -119.47973 19008 ft 425 kts 326°
2026-05-07 15:48 34.37448 -119.50063 19367 ft 427 kts 326°
2026-05-07 15:49 34.39849 -119.52192 19734 ft 430 kts 323°
2026-05-07 15:49 34.42060 -119.54643 20093 ft 433 kts 315°
2026-05-07 15:49 34.44046 -119.57346 20433 ft 436 kts 312°
2026-05-07 15:49 34.46017 -119.60145 20816 ft 438 kts 312°
2026-05-07 15:50 34.47991 -119.62960 21146 ft 440 kts 312°
2026-05-07 15:50 34.49979 -119.65792 21528 ft 442 kts 312°
2026-05-07 15:50 34.51976 -119.68638 21919 ft 444 kts 312°
2026-05-07 15:50 34.53980 -119.71492 22289 ft 446 kts 312°
2026-05-07 15:51 34.55997 -119.74362 22661 ft 448 kts 312°
2026-05-07 15:51 34.58022 -119.77245 23048 ft 450 kts 312°
2026-05-07 15:51 34.60055 -119.80143 23439 ft 452 kts 312°
2026-05-07 15:51 34.62097 -119.83055 23782 ft 454 kts 311°
2026-05-07 15:52 34.64121 -119.85943 24106 ft 456 kts 311°
2026-05-07 15:52 34.66178 -119.88882 24457 ft 458 kts 311°
2026-05-07 15:52 34.68244 -119.91837 24786 ft 460 kts 311°
2026-05-07 15:52 34.70316 -119.94802 25132 ft 461 kts 311°
2026-05-07 15:53 34.72399 -119.97785 25460 ft 463 kts 312°
2026-05-07 15:53 34.74489 -120.00782 25815 ft 465 kts 312°
2026-05-07 15:53 34.76583 -120.03786 26194 ft 466 kts 312°
2026-05-07 15:53 34.78683 -120.06802 26512 ft 469 kts 312°
2026-05-07 15:54 34.80796 -120.09838 26815 ft 471 kts 312°
2026-05-07 15:54 34.82916 -120.12888 27123 ft 473 kts 311°
2026-05-07 15:54 34.85018 -120.15914 27440 ft 475 kts 311°
2026-05-07 15:54 34.87153 -120.18991 27742 ft 477 kts 311°
2026-05-07 15:55 34.89294 -120.22079 28069 ft 478 kts 311°
2026-05-07 15:55 34.91441 -120.25179 28367 ft 480 kts 311°
2026-05-07 15:55 34.93597 -120.28293 28634 ft 482 kts 311°
2026-05-07 15:55 34.95760 -120.31420 28921 ft 483 kts 311°
2026-05-07 15:56 34.97931 -120.34563 29188 ft 485 kts 311°
2026-05-07 15:56 35.00105 -120.37713 29446 ft 487 kts 311°
2026-05-07 15:56 35.02282 -120.40870 29805 ft 486 kts 311°
2026-05-07 15:56 35.04455 -120.44025 30168 ft 484 kts 311°
2026-05-07 15:57 35.06617 -120.47165 30537 ft 482 kts 311°
2026-05-07 15:57 35.08740 -120.50252 30878 ft 480 kts 311°
2026-05-07 15:57 35.10885 -120.53375 31209 ft 479 kts 311°
2026-05-07 15:57 35.13018 -120.56482 31534 ft 477 kts 311°
2026-05-07 15:58 35.15147 -120.59586 31838 ft 476 kts 311°
2026-05-07 15:58 35.17272 -120.62687 32139 ft 474 kts 311°
2026-05-07 15:58 35.19385 -120.65773 32428 ft 473 kts 311°
2026-05-07 15:58 35.21491 -120.68853 32719 ft 471 kts 311°
2026-05-07 15:59 35.23590 -120.71923 33006 ft 470 kts 311°
2026-05-07 15:59 35.25683 -120.74990 33271 ft 469 kts 311°
2026-05-07 15:59 35.27739 -120.78003 33526 ft 468 kts 311°
2026-05-07 15:59 35.29822 -120.81058 33788 ft 467 kts 311°
2026-05-07 16:00 35.31898 -120.84107 34034 ft 465 kts 311°
2026-05-07 16:00 35.33965 -120.87144 34268 ft 464 kts 311°
2026-05-07 16:00 35.36027 -120.90177 34455 ft 463 kts 311°
2026-05-07 16:00 35.38090 -120.93214 34603 ft 463 kts 311°
2026-05-07 16:01 35.40150 -120.96250 34756 ft 463 kts 311°
2026-05-07 16:01 35.42211 -120.99289 34897 ft 463 kts 311°
2026-05-07 16:01 35.44240 -121.02283 35049 ft 462 kts 311°
2026-05-07 16:01 35.46292 -121.05316 35214 ft 462 kts 311°
2026-05-07 16:02 35.48341 -121.08346 35363 ft 461 kts 311°
2026-05-07 16:02 35.50394 -121.11358 35505 ft 461 kts 311°
2026-05-07 16:02 35.52471 -121.14353 35622 ft 460 kts 311°
2026-05-07 16:02 35.54559 -121.17339 35754 ft 460 kts 312°
2026-05-07 16:03 35.56642 -121.20315 35879 ft 460 kts 311°
2026-05-07 16:03 35.58722 -121.23295 36001 ft 459 kts 311°
2026-05-07 16:03 35.60797 -121.26275 36113 ft 459 kts 311°
2026-05-07 16:04 35.64927 -121.32231 36140 ft 463 kts 311°
2026-05-07 16:04 35.69115 -121.38292 36146 ft 466 kts 311°
2026-05-07 16:05 35.73307 -121.44370 36146 ft 465 kts 311°
2026-05-07 16:05 35.77494 -121.50451 36145 ft 465 kts 311°
2026-05-07 16:06 35.81646 -121.56489 36143 ft 466 kts 311°
2026-05-07 16:06 35.85830 -121.62587 36145 ft 466 kts 311°
2026-05-07 16:07 35.90015 -121.68696 36145 ft 466 kts 311°
2026-05-07 16:07 35.94192 -121.74805 36143 ft 466 kts 311°
2026-05-07 16:08 35.97664 -121.79892 36145 ft 466 kts 311°
2026-05-07 16:08 36.02840 -121.86667 36148 ft 467 kts 316°
2026-05-07 16:09 36.07511 -121.92242 36148 ft 467 kts 316°
2026-05-07 16:09 36.12210 -121.97792 36159 ft 467 kts 316°
2026-05-07 16:10 36.16112 -122.02410 36167 ft 467 kts 316°
2026-05-07 16:10 36.21560 -122.08882 36163 ft 467 kts 316°
2026-05-07 16:11 36.25482 -122.13555 36169 ft 467 kts 316°
2026-05-07 16:11 36.30137 -122.19111 36178 ft 468 kts 316°
2026-05-07 16:12 36.34823 -122.24714 36181 ft 468 kts 316°
2026-05-07 16:12 36.39505 -122.30320 36187 ft 468 kts 316°
2026-05-07 16:13 36.44187 -122.35938 36184 ft 468 kts 315°
2026-05-07 16:13 36.48853 -122.41544 36189 ft 471 kts 315°
2026-05-07 16:14 36.53557 -122.47208 36192 ft 471 kts 315°
2026-05-07 16:14 36.58256 -122.52876 36195 ft 471 kts 315°
2026-05-07 16:15 36.62952 -122.58550 36193 ft 471 kts 315°
2026-05-07 16:15 36.67621 -122.64199 36191 ft 471 kts 315°
2026-05-07 16:16 36.72323 -122.69900 36193 ft 472 kts 315°
2026-05-07 16:16 36.77030 -122.75619 36192 ft 473 kts 315°
2026-05-07 16:17 36.81735 -122.81346 36192 ft 473 kts 315°
2026-05-07 16:17 36.86439 -122.87081 36192 ft 473 kts 315°
2026-05-07 16:18 36.91116 -122.92791 36190 ft 474 kts 315°
2026-05-07 16:18 36.95827 -122.98555 36192 ft 474 kts 315°
2026-05-07 16:19 37.00536 -123.04329 36192 ft 474 kts 315°
2026-05-07 16:19 37.05245 -123.10112 36192 ft 474 kts 315°
2026-05-07 16:20 37.09925 -123.15869 36191 ft 474 kts 315°
2026-05-07 16:20 37.14633 -123.21671 36189 ft 475 kts 314°
2026-05-07 16:21 37.19337 -123.27498 36195 ft 475 kts 314°
2026-05-07 16:21 37.24023 -123.33354 36192 ft 476 kts 314°
2026-05-07 16:22 37.28677 -123.39185 36193 ft 476 kts 314°
2026-05-07 16:22 37.33357 -123.45056 36196 ft 475 kts 314°
2026-05-07 16:23 37.38034 -123.50930 36197 ft 475 kts 314°
2026-05-07 16:23 37.42706 -123.56809 36195 ft 475 kts 314°
2026-05-07 16:24 37.47376 -123.62697 36205 ft 475 kts 314°
2026-05-07 16:24 37.52008 -123.68548 36193 ft 475 kts 314°
2026-05-07 16:25 37.56670 -123.74449 36195 ft 476 kts 314°
2026-05-07 16:25 37.61337 -123.80367 36196 ft 476 kts 314°
2026-05-07 16:26 37.66005 -123.86296 36197 ft 476 kts 314°
2026-05-07 16:26 37.70633 -123.92186 36199 ft 476 kts 314°
2026-05-07 16:27 37.75291 -123.98123 36196 ft 476 kts 314°
2026-05-07 16:27 37.79960 -124.04087 36201 ft 477 kts 313°
2026-05-07 16:28 37.84625 -124.10058 36201 ft 477 kts 313°
2026-05-07 16:28 37.89258 -124.16001 36206 ft 477 kts 313°
2026-05-07 16:29 37.93915 -124.21983 36200 ft 477 kts 313°
2026-05-07 16:29 37.98578 -124.27987 36202 ft 478 kts 313°
2026-05-07 16:30 38.03245 -124.34007 36205 ft 478 kts 313°
2026-05-07 16:30 38.07875 -124.39991 36205 ft 478 kts 313°
2026-05-07 16:31 38.12534 -124.46024 36205 ft 479 kts 313°
2026-05-07 16:31 38.17196 -124.52072 36204 ft 479 kts 313°
2026-05-07 16:32 38.21859 -124.58132 36206 ft 480 kts 313°
2026-05-07 16:32 38.26530 -124.64216 36205 ft 480 kts 313°
2026-05-07 16:33 38.31162 -124.70259 36208 ft 480 kts 313°
2026-05-07 16:33 38.35829 -124.76360 36209 ft 481 kts 313°
2026-05-07 16:34 38.40502 -124.82482 36207 ft 482 kts 313°
2026-05-07 16:34 38.45174 -124.88616 36211 ft 482 kts 313°
2026-05-07 16:35 38.49813 -124.94719 36211 ft 482 kts 313°
2026-05-07 16:35 38.54474 -125.00861 36212 ft 482 kts 312°
2026-05-07 16:36 38.59153 -125.07039 36213 ft 484 kts 312°
2026-05-07 16:36 38.63833 -125.13231 36211 ft 484 kts 312°
2026-05-07 16:37 38.68475 -125.19385 36212 ft 484 kts 312°
2026-05-07 16:37 38.73152 -125.25597 36219 ft 484 kts 312°
2026-05-07 16:38 38.77827 -125.31820 36215 ft 485 kts 312°
2026-05-07 16:38 38.82498 -125.38051 36220 ft 485 kts 312°
2026-05-07 16:39 38.87138 -125.44252 36216 ft 485 kts 312°
2026-05-07 16:39 38.91807 -125.50505 36221 ft 485 kts 312°
2026-05-07 16:40 38.96476 -125.56770 36220 ft 485 kts 312°
2026-05-07 16:40 39.01135 -125.63034 36218 ft 485 kts 312°
2026-05-07 16:41 39.05793 -125.69312 36195 ft 485 kts 312°
2026-05-07 16:41 39.10404 -125.75567 36220 ft 485 kts 312°
2026-05-07 16:42 39.14991 -125.81915 36255 ft 484 kts 311°
2026-05-07 16:42 39.19530 -125.88314 36250 ft 484 kts 311°
2026-05-07 16:43 39.24027 -125.94768 36252 ft 483 kts 311°
2026-05-07 16:43 39.28483 -126.01243 36302 ft 482 kts 310°
2026-05-07 16:44 39.32897 -126.07675 36304 ft 482 kts 311°
2026-05-07 16:44 39.37350 -126.14142 36318 ft 481 kts 311°
2026-05-07 16:45 39.41809 -126.20571 36359 ft 480 kts 311°
2026-05-07 16:45 39.46299 -126.26974 36317 ft 480 kts 312°
2026-05-07 16:46 39.50769 -126.33324 36301 ft 480 kts 312°
2026-05-07 16:46 39.55280 -126.39698 36311 ft 480 kts 312°
2026-05-07 16:47 39.59809 -126.46046 36309 ft 479 kts 313°
2026-05-07 16:47 39.64344 -126.52355 36374 ft 477 kts 313°
2026-05-07 16:48 39.68859 -126.58577 36371 ft 477 kts 313°
2026-05-07 16:48 39.73438 -126.64830 36300 ft 478 kts 314°
2026-05-07 16:49 39.78026 -126.71058 36318 ft 477 kts 314°
2026-05-07 16:49 39.82627 -126.77256 36354 ft 476 kts 314°
2026-05-07 16:50 39.87204 -126.83380 36360 ft 475 kts 314°
2026-05-07 16:50 39.91805 -126.89516 36388 ft 473 kts 314°
2026-05-07 16:51 39.96420 -126.95643 36349 ft 474 kts 315°
2026-05-07 16:51 40.01048 -127.01761 36308 ft 473 kts 315°
2026-05-07 16:52 40.05637 -127.07808 36372 ft 471 kts 315°
2026-05-07 16:52 40.10261 -127.13873 36341 ft 472 kts 315°
2026-05-07 16:53 40.14905 -127.19940 36287 ft 472 kts 315°
2026-05-07 16:53 40.19549 -127.25987 36308 ft 471 kts 315°
2026-05-07 16:54 40.24163 -127.31971 36304 ft 470 kts 315°
2026-05-07 16:54 40.28820 -127.37989 36261 ft 471 kts 315°
2026-05-07 16:55 40.33494 -127.44017 36236 ft 471 kts 316°
2026-05-07 16:55 40.38163 -127.50028 36242 ft 470 kts 316°
2026-05-07 16:56 40.42800 -127.55994 36266 ft 469 kts 316°
2026-05-07 16:56 40.49790 -127.64996 36229 ft 470 kts 316°
2026-05-07 16:57 40.54462 -127.71012 36183 ft 470 kts 316°
2026-05-07 16:57 40.59145 -127.77024 36179 ft 470 kts 316°
2026-05-07 16:58 40.63827 -127.83027 36184 ft 470 kts 316°
2026-05-07 16:58 40.68482 -127.88975 36171 ft 470 kts 316°
2026-05-07 16:59 40.73187 -127.94956 36152 ft 470 kts 316°
2026-05-07 16:59 40.77906 -128.00938 36149 ft 470 kts 316°
2026-05-07 17:00 40.82634 -128.06895 36148 ft 470 kts 316°
2026-05-07 17:00 40.87367 -128.12773 36132 ft 471 kts 316°
2026-05-07 17:01 40.92180 -128.18638 36155 ft 470 kts 318°
2026-05-07 17:01 40.97130 -128.24332 36046 ft 473 kts 319°
2026-05-07 17:02 41.02214 -128.29897 35982 ft 475 kts 320°
2026-05-07 17:02 41.07370 -128.35350 36070 ft 473 kts 321°
2026-05-07 17:03 41.12536 -128.40635 36091 ft 473 kts 321°
2026-05-07 17:03 41.17812 -128.45885 35984 ft 475 kts 322°
2026-05-07 17:04 41.23144 -128.51097 35983 ft 476 kts 322°
2026-05-07 17:04 41.28511 -128.56233 36023 ft 475 kts 323°
2026-05-07 17:05 41.33908 -128.61308 36015 ft 475 kts 323°
2026-05-07 17:05 41.39301 -128.66325 35989 ft 476 kts 323°
2026-05-07 17:06 41.44760 -128.71337 35976 ft 477 kts 323°
2026-05-07 17:06 41.50239 -128.76328 36001 ft 477 kts 323°
2026-05-07 17:07 41.55723 -128.81308 36010 ft 477 kts 323°
2026-05-07 17:07 41.61191 -128.86237 35960 ft 478 kts 324°
2026-05-07 17:08 41.66729 -128.91179 35928 ft 479 kts 324°
2026-05-07 17:08 41.72284 -128.96100 35961 ft 478 kts 324°
2026-05-07 17:09 41.77836 -129.01004 36002 ft 478 kts 324°
2026-05-07 17:09 41.83353 -129.05880 35982 ft 479 kts 324°
2026-05-07 17:10 41.88914 -129.10804 35959 ft 479 kts 324°
2026-05-07 17:10 41.94482 -129.15729 35974 ft 479 kts 324°
2026-05-07 17:11 42.00041 -129.20657 36006 ft 479 kts 324°
2026-05-07 17:11 42.05602 -129.25597 35970 ft 480 kts 324°
2026-05-07 17:12 42.11147 -129.30517 35904 ft 481 kts 324°
2026-05-07 17:12 42.16736 -129.35487 35948 ft 480 kts 324°
2026-05-07 17:13 42.22308 -129.40440 36012 ft 480 kts 324°
2026-05-07 17:13 42.27906 -129.45389 35938 ft 482 kts 324°
2026-05-07 17:14 42.33480 -129.50314 35913 ft 482 kts 324°
2026-05-07 17:14 42.39100 -129.55266 35967 ft 482 kts 324°
2026-05-07 17:15 42.44724 -129.60186 35970 ft 482 kts 324°
2026-05-07 17:15 42.50367 -129.65103 35952 ft 482 kts 324°
2026-05-07 17:16 42.55984 -129.69979 35959 ft 483 kts 324°
2026-05-07 17:16 42.61646 -129.74868 35984 ft 482 kts 324°
2026-05-07 17:17 42.67311 -129.79753 35994 ft 482 kts 324°
2026-05-07 17:17 42.72989 -129.84629 35988 ft 483 kts 324°
2026-05-07 17:18 42.78649 -129.89461 35963 ft 484 kts 324°
2026-05-07 17:18 42.84360 -129.94325 35970 ft 484 kts 324°
2026-05-07 17:19 42.90074 -129.99173 35994 ft 484 kts 324°
2026-05-07 17:19 42.95800 -130.04008 35986 ft 484 kts 324°
2026-05-07 17:20 43.01493 -130.08814 35989 ft 484 kts 324°
2026-05-07 17:20 43.07236 -130.13638 35985 ft 485 kts 324°
2026-05-07 17:21 43.13004 -130.18447 35984 ft 485 kts 324°
2026-05-07 17:21 43.18767 -130.23247 36022 ft 485 kts 324°
2026-05-07 17:22 43.24514 -130.27992 35983 ft 486 kts 325°
2026-05-07 17:22 43.30345 -130.32742 35932 ft 488 kts 325°
2026-05-07 17:23 43.36185 -130.37464 35994 ft 486 kts 326°
2026-05-07 17:23 43.42018 -130.42148 36070 ft 485 kts 326°
2026-05-07 17:24 43.47812 -130.46799 36026 ft 486 kts 326°
2026-05-07 17:24 43.53658 -130.51514 35975 ft 488 kts 325°
2026-05-07 17:25 43.59507 -130.56260 35996 ft 487 kts 325°
2026-05-07 17:25 43.65331 -130.61027 36033 ft 486 kts 325°
2026-05-07 17:26 43.71137 -130.65829 36019 ft 487 kts 324°
2026-05-07 17:26 43.76906 -130.70639 35953 ft 489 kts 324°
2026-05-07 17:27 43.82726 -130.75551 35901 ft 490 kts 324°
2026-05-07 17:27 43.88514 -130.80499 35999 ft 487 kts 324°
2026-05-07 17:28 43.94269 -130.85429 36094 ft 486 kts 323°
2026-05-07 17:28 43.99996 -130.90351 35972 ft 489 kts 323°
2026-05-07 17:29 44.05775 -130.95371 35913 ft 490 kts 323°
2026-05-07 17:29 44.11530 -131.00431 35980 ft 489 kts 322°
2026-05-07 17:30 44.17262 -131.05546 35932 ft 490 kts 322°
2026-05-07 17:30 44.22938 -131.10710 35911 ft 491 kts 321°
2026-05-07 17:31 44.28626 -131.15977 35936 ft 491 kts 321°
2026-05-07 17:31 44.34311 -131.21286 35857 ft 493 kts 321°
2026-05-07 17:32 44.39984 -131.26667 35877 ft 492 kts 320°
2026-05-07 17:32 44.45583 -131.32051 35946 ft 491 kts 320°
2026-05-07 17:33 44.51231 -131.37456 35939 ft 492 kts 320°
2026-05-07 17:33 44.56876 -131.42884 35930 ft 492 kts 320°
2026-05-07 17:34 44.62506 -131.48360 35943 ft 493 kts 320°
2026-05-07 17:34 44.68100 -131.53840 35883 ft 494 kts 319°
2026-05-07 17:35 44.73721 -131.59420 35889 ft 494 kts 319°
2026-05-07 17:35 44.79299 -131.65050 35964 ft 493 kts 318°
2026-05-07 17:36 44.84858 -131.70732 35897 ft 495 kts 318°
2026-05-07 17:36 44.90410 -131.76493 35853 ft 496 kts 317°
2026-05-07 17:37 44.95886 -131.82275 35951 ft 494 kts 317°
2026-05-07 17:37 45.01371 -131.88119 35958 ft 494 kts 317°
2026-05-07 17:38 45.06862 -131.94014 35889 ft 496 kts 316°
2026-05-07 17:38 45.12303 -131.99919 35900 ft 496 kts 316°
2026-05-07 17:39 45.17734 -132.05894 35996 ft 493 kts 316°
2026-05-07 17:39 45.23122 -132.11920 35994 ft 493 kts 315°
2026-05-07 17:40 45.28481 -132.18035 35949 ft 495 kts 315°
2026-05-07 17:40 45.33812 -132.24232 35907 ft 496 kts 314°
2026-05-07 17:41 45.39101 -132.30457 35897 ft 496 kts 314°
2026-05-07 17:41 45.44387 -132.36764 35970 ft 495 kts 314°
2026-05-07 17:42 45.49631 -132.43111 35986 ft 495 kts 313°
2026-05-07 17:42 45.54872 -132.49532 35882 ft 498 kts 313°
2026-05-07 17:43 45.60061 -132.55968 35896 ft 497 kts 313°
2026-05-07 17:43 45.65249 -132.62472 36018 ft 495 kts 312°
2026-05-07 17:44 45.70427 -132.69016 35915 ft 498 kts 312°
2026-05-07 17:44 45.75614 -132.75637 35821 ft 500 kts 312°
2026-05-07 17:45 45.80775 -132.82283 35976 ft 498 kts 311°
2026-05-07 17:45 45.85872 -132.88885 36007 ft 497 kts 311°
2026-05-07 17:46 45.91002 -132.95576 35915 ft 500 kts 311°
2026-05-07 17:46 45.96136 -133.02327 35907 ft 500 kts 311°
2026-05-07 17:47 46.01247 -133.09090 35969 ft 499 kts 311°
2026-05-07 17:47 46.06359 -133.15886 35920 ft 501 kts 311°
2026-05-07 17:48 46.11432 -133.22673 35913 ft 501 kts 310°
2026-05-07 17:48 46.16525 -133.29528 35967 ft 501 kts 310°
2026-05-07 17:49 46.21617 -133.36428 35891 ft 503 kts 310°
2026-05-07 17:49 46.26706 -133.43373 35883 ft 503 kts 310°
2026-05-07 17:50 46.31735 -133.50282 36001 ft 501 kts 310°
2026-05-07 17:50 46.36803 -133.57254 35898 ft 505 kts 310°
2026-05-07 17:51 46.41905 -133.64290 35802 ft 507 kts 310°
2026-05-07 17:51 46.46993 -133.71333 35934 ft 505 kts 310°
2026-05-07 17:52 46.52062 -133.78382 35943 ft 505 kts 310°
2026-05-07 17:52 46.57109 -133.85451 35791 ft 509 kts 310°
2026-05-07 17:53 46.62195 -133.92633 35815 ft 509 kts 310°
2026-05-07 17:53 46.67245 -133.99825 35936 ft 507 kts 309°
2026-05-07 17:54 46.72236 -134.07018 35854 ft 510 kts 309°
2026-05-07 17:54 46.77258 -134.14345 35800 ft 511 kts 309°
2026-05-07 17:55 46.82243 -134.21693 35906 ft 509 kts 309°
2026-05-07 17:55 46.87194 -134.29054 35967 ft 507 kts 308°
2026-05-07 17:56 46.92121 -134.36447 35933 ft 509 kts 308°
2026-05-07 17:56 46.97009 -134.43850 35908 ft 510 kts 308°
2026-05-07 17:57 47.01095 -134.50112 35797 ft 513 kts 308°
2026-05-07 17:57 47.04383 -134.55215 35677 ft 515 kts 307°
2026-05-07 17:57 47.06828 -134.59049 35676 ft 515 kts 307°
2026-05-07 17:58 47.11681 -134.66756 35829 ft 512 kts 307°
2026-05-07 17:58 47.14079 -134.70609 35931 ft 511 kts 307°
2026-05-07 17:58 47.16445 -134.74426 35862 ft 513 kts 307°
2026-05-07 17:59 47.18850 -134.78321 35731 ft 516 kts 306°
2026-05-07 17:59 47.21265 -134.82256 35615 ft 519 kts 306°
2026-05-07 17:59 47.26083 -134.90185 35639 ft 518 kts 306°
2026-05-07 18:00 47.28466 -134.94143 35793 ft 515 kts 306°
2026-05-07 18:00 47.30829 -134.98087 35960 ft 513 kts 306°
2026-05-07 18:00 47.35532 -135.05942 35834 ft 517 kts 306°
2026-05-07 18:01 47.37909 -135.09937 35689 ft 520 kts 305°
2026-05-07 18:01 47.40296 -135.13974 35604 ft 522 kts 305°
2026-05-07 18:01 47.45036 -135.22070 35759 ft 519 kts 305°
2026-05-07 18:02 47.49711 -135.30168 35886 ft 517 kts 304°
2026-05-07 18:02 47.52001 -135.34184 35842 ft 518 kts 304°
2026-05-07 18:03 47.56632 -135.42414 35677 ft 522 kts 304°
2026-05-07 18:03 47.61232 -135.50729 35798 ft 520 kts 303°
2026-05-07 18:04 47.65788 -135.59048 35856 ft 520 kts 303°
2026-05-07 18:04 47.70335 -135.67429 35771 ft 522 kts 303°
2026-05-07 18:05 47.74831 -135.75811 35788 ft 522 kts 302°
2026-05-07 18:05 47.79323 -135.84276 35878 ft 521 kts 302°
2026-05-07 18:06 47.83795 -135.92802 35774 ft 524 kts 302°
2026-05-07 18:06 47.88247 -136.01410 35777 ft 524 kts 302°
2026-05-07 18:07 47.92650 -136.10036 35928 ft 522 kts 301°
2026-05-07 18:07 47.96981 -136.18636 35905 ft 523 kts 301°
2026-05-07 18:08 48.01317 -136.27395 35787 ft 525 kts 300°
2026-05-07 18:08 48.05607 -136.36218 35855 ft 523 kts 300°
2026-05-07 18:09 48.09832 -136.45059 35959 ft 522 kts 300°
2026-05-07 18:09 48.13977 -136.53917 35859 ft 525 kts 299°
2026-05-07 18:10 48.18105 -136.62948 35831 ft 525 kts 298°
2026-05-07 18:10 48.22158 -136.72012 35969 ft 522 kts 298°
2026-05-07 18:11 48.26121 -136.81068 35951 ft 523 kts 297°
2026-05-07 18:11 48.30054 -136.90281 35839 ft 525 kts 296°
2026-05-07 18:12 48.33925 -136.99581 35872 ft 524 kts 296°
2026-05-07 18:12 48.37718 -137.08893 35994 ft 521 kts 295°
2026-05-07 18:13 48.41439 -137.18242 35993 ft 521 kts 295°
2026-05-07 18:13 48.45073 -137.27610 35907 ft 523 kts 294°
2026-05-07 18:14 48.48667 -137.37131 35956 ft 522 kts 293°
2026-05-07 18:14 48.52182 -137.46699 35971 ft 521 kts 292°
2026-05-07 18:15 48.55620 -137.56326 35966 ft 521 kts 292°
2026-05-07 18:15 48.58957 -137.65952 35966 ft 521 kts 291°
2026-05-07 18:16 48.62234 -137.75708 35959 ft 521 kts 290°
2026-05-07 18:16 48.65427 -137.85552 35888 ft 522 kts 289°
2026-05-07 18:17 48.68536 -137.95458 35922 ft 520 kts 289°
2026-05-07 18:17 48.71543 -138.05320 35996 ft 519 kts 288°
2026-05-07 18:18 48.74491 -138.15284 35998 ft 519 kts 288°
2026-05-07 18:18 48.75937 -138.20320 35877 ft 522 kts 287°
2026-05-07 18:18 48.77363 -138.25392 35762 ft 524 kts 287°
2026-05-07 18:19 48.80149 -138.35618 35744 ft 524 kts 286°
2026-05-07 18:19 48.82816 -138.45774 35962 ft 519 kts 285°
2026-05-07 18:20 48.85408 -138.55970 35981 ft 518 kts 284°
2026-05-07 18:20 48.87935 -138.66263 35817 ft 522 kts 284°
2026-05-07 18:21 48.90390 -138.76641 35807 ft 521 kts 283°
2026-05-07 18:21 48.92754 -138.87003 35954 ft 517 kts 283°
2026-05-07 18:22 48.95025 -138.97314 35920 ft 518 kts 282°
2026-05-07 18:22 48.97246 -139.07769 35782 ft 521 kts 281°
2026-05-07 18:23 48.99397 -139.18285 35809 ft 519 kts 281°
2026-05-07 18:23 49.01469 -139.28780 35924 ft 516 kts 280°
2026-05-07 18:24 49.03455 -139.39212 35894 ft 516 kts 279°
2026-05-07 18:24 49.05388 -139.49771 35817 ft 518 kts 279°
2026-05-07 18:25 49.07253 -139.60369 35829 ft 517 kts 278°
2026-05-07 18:25 49.09049 -139.70962 35889 ft 515 kts 278°
2026-05-07 18:26 49.10773 -139.81553 35882 ft 515 kts 277°
2026-05-07 18:26 49.12416 -139.92127 35806 ft 516 kts 277°
2026-05-07 18:27 49.14001 -140.02803 35821 ft 515 kts 276°
2026-05-07 18:27 49.15518 -140.13471 35869 ft 513 kts 276°
2026-05-07 18:28 49.16971 -140.24145 35871 ft 513 kts 275°
2026-05-07 18:28 49.18351 -140.34788 35787 ft 515 kts 275°
2026-05-07 18:29 49.19683 -140.45538 35788 ft 514 kts 274°
2026-05-07 18:29 49.20964 -140.56271 35844 ft 512 kts 274°
2026-05-07 18:30 49.22192 -140.67005 35814 ft 514 kts 274°
2026-05-07 18:30 49.23357 -140.77753 35655 ft 517 kts 273°
2026-05-07 18:31 49.24478 -140.88595 35703 ft 515 kts 273°
2026-05-07 18:31 49.25562 -140.99396 35814 ft 512 kts 272°
2026-05-07 18:32 49.26619 -141.10175 35768 ft 513 kts 272°
2026-05-07 18:32 49.27657 -141.21004 35668 ft 515 kts 272°
2026-05-07 18:33 49.28670 -141.31775 35703 ft 514 kts 272°
2026-05-07 18:33 49.29679 -141.42601 35746 ft 512 kts 272°
2026-05-07 18:34 49.30677 -141.53406 35729 ft 513 kts 272°
2026-05-07 18:34 49.31660 -141.64271 35606 ft 517 kts 272°
2026-05-07 18:35 49.32584 -141.75145 35492 ft 518 kts 271°
2026-05-07 18:35 49.33433 -141.86089 35615 ft 515 kts 271°
2026-05-07 18:36 49.34224 -141.96962 35723 ft 512 kts 270°
2026-05-07 18:36 49.34977 -142.07854 35607 ft 515 kts 270°
2026-05-07 18:37 49.35696 -142.18735 35526 ft 516 kts 270°
2026-05-07 18:37 49.36388 -142.29668 35641 ft 513 kts 270°
2026-05-07 18:38 49.37063 -142.40543 35737 ft 511 kts 270°
2026-05-07 18:38 49.37735 -142.51439 35571 ft 516 kts 270°
2026-05-07 18:38 49.38072 -142.56936 35426 ft 519 kts 270°
2026-05-07 18:39 49.38405 -142.62394 35348 ft 521 kts 270°
2026-05-07 18:39 49.39079 -142.73435 35501 ft 517 kts 270°
2026-05-07 18:39 49.39415 -142.78905 35648 ft 513 kts 270°
2026-05-07 18:40 49.39752 -142.84345 35757 ft 511 kts 270°
2026-05-07 18:40 49.40427 -142.95221 35635 ft 514 kts 270°
2026-05-07 18:40 49.40767 -143.00707 35495 ft 517 kts 270°
2026-05-07 18:41 49.41104 -143.06149 35403 ft 519 kts 270°
2026-05-07 18:41 49.41789 -143.17169 35464 ft 517 kts 270°
2026-05-07 18:41 49.42130 -143.22653 35601 ft 514 kts 271°
2026-05-07 18:42 49.42462 -143.28099 35745 ft 511 kts 270°
2026-05-07 18:42 49.42991 -143.37122 35770 ft 511 kts 270°
2026-05-07 18:42 49.43289 -143.42584 35587 ft 515 kts 270°
2026-05-07 18:43 49.43572 -143.48093 35388 ft 520 kts 270°
2026-05-07 18:43 49.43926 -143.55449 35248 ft 522 kts 270°
2026-05-07 18:43 49.44178 -143.61002 35315 ft 520 kts 269°
2026-05-07 18:43 49.44418 -143.66520 35476 ft 516 kts 269°
2026-05-07 18:44 49.44649 -143.71998 35630 ft 512 kts 269°
2026-05-07 18:44 49.45010 -143.81053 35749 ft 510 kts 269°
2026-05-07 18:45 49.45415 -143.91975 35515 ft 515 kts 269°
2026-05-07 18:45 49.45605 -143.97485 35405 ft 517 kts 269°
2026-05-07 18:45 49.45847 -144.04796 35379 ft 517 kts 268°
2026-05-07 18:46 49.46140 -144.14020 35537 ft 513 kts 268°
2026-05-07 18:46 49.46464 -144.24872 35623 ft 512 kts 268°
2026-05-07 18:47 49.46717 -144.35839 35474 ft 515 kts 268°
2026-05-07 18:47 49.46882 -144.46847 35461 ft 514 kts 267°
2026-05-07 18:48 49.46966 -144.57808 35554 ft 511 kts 266°
2026-05-07 18:48 49.46980 -144.68650 35552 ft 511 kts 266°
2026-05-07 18:49 49.46927 -144.79595 35454 ft 513 kts 266°
2026-05-07 18:49 49.46824 -144.90563 35449 ft 512 kts 265°
2026-05-07 18:50 49.46670 -145.01486 35518 ft 511 kts 265°
2026-05-07 18:50 49.46444 -145.12360 35343 ft 515 kts 264°
2026-05-07 18:51 49.46130 -145.23370 35258 ft 515 kts 264°
2026-05-07 18:51 49.45742 -145.34331 35416 ft 512 kts 263°
2026-05-07 18:52 49.45291 -145.45207 35525 ft 509 kts 263°
2026-05-07 18:52 49.44787 -145.56058 35465 ft 510 kts 262°
2026-05-07 18:53 49.44228 -145.66883 35351 ft 513 kts 262°
2026-05-07 18:53 49.43608 -145.77829 35180 ft 516 kts 261°
2026-05-07 18:54 49.42941 -145.88848 35099 ft 518 kts 261°
2026-05-07 18:54 49.42257 -145.99811 35312 ft 512 kts 261°
2026-05-07 18:54 49.41917 -146.05229 35482 ft 509 kts 261°
2026-05-07 18:55 49.41584 -146.10560 35535 ft 507 kts 261°
2026-05-07 18:55 49.40901 -146.21383 35365 ft 513 kts 261°
2026-05-07 18:55 49.40550 -146.26844 35236 ft 516 kts 261°
2026-05-07 18:56 49.40192 -146.32337 35204 ft 517 kts 260°
2026-05-07 18:56 49.39476 -146.43277 35321 ft 514 kts 260°
2026-05-07 18:57 49.38775 -146.54193 35361 ft 514 kts 261°
2026-05-07 18:57 49.38113 -146.65062 35299 ft 517 kts 261°
2026-05-07 18:58 49.37497 -146.76063 35293 ft 518 kts 262°
2026-05-07 18:58 49.36935 -146.87051 35269 ft 514 kts 262°
2026-05-07 18:58 49.36686 -146.92535 35077 ft 518 kts 262°
2026-05-07 18:59 49.36462 -146.98075 34938 ft 522 kts 263°
2026-05-07 18:59 49.36091 -147.09114 35078 ft 520 kts 264°